Regional Weather Roundup
Issued by NWS Glasgow, MT

Home | Current Version | Previous Version | Text Only | Print | Product List | Glossary On
Versions: 1 2 3 4 5 6 7 8 9 10 11 12 13 14 15 16 17 18 19 20 21 22 23 24 25 26 27 28 29 30 31 32 33 34 35 36 37 38 39 40 41 42 43 44 45 46 47 48 49 50
000
ASUS45 KGGW 201015
RWRGGW
HOURLY WEATHER ROUNDUP FOR NORTHEAST MONTANA
NATIONAL WEATHER SERVICE GLASGOW MONTANA
400 AM MDT SAT SEP 20 2014

NOTE: "FAIR" INDICATES FEW OR NO CLOUDS BELOW 12,000 FEET WITH NO
SIGNIFICANT WEATHER AND/OR OBSTRUCTIONS TO VISISBILITY.

NORTHEAST MONTANA


CITY           SKY/WX    TMP DP  RH WIND       PRES   REMARKS
GLASGOW        CLEAR     54  46  74 W8        29.90R
PLENTYWOOD       N/A     47  45  93 S1          N/A
WOLF POINT     CLEAR     51  48  89 W6        29.88S
JORDAN           N/A     50  44  80 W5        29.98R
WINNETT          N/A     48  42  80 SW3         N/A
SIDNEY         PTCLDY    50  48  93 S6        29.89S
GLENDIVE       NOT AVBL
MALTA            N/A     54  44  69 SW12        N/A
SCOBEY           N/A     48  43  82 NW5       29.86F
OPHEIM           N/A     50  45  81 W8        29.69R

FORT PECK REPORTS


CITY           SKY/WX    TMP DP  RH WIND       PRES   REMARKS
FORT PECK        N/A     59  47  64 W14         N/A
THE PINES        N/A     61  44  53 SW7         N/A

SOUTHEAST MONTANA


CITY           SKY/WX    TMP DP  RH WIND       PRES   REMARKS
BILLINGS       CLEAR     56  43  61 SW9       30.11R
MILES CITY     CLEAR     56  45  66 W8        29.99R
BAKER          CLEAR     54  46  74 W9        29.97R
LIVINGSTON     CLEAR     50  40  68 W10       30.19R

CENTRAL MONTANA


CITY           SKY/WX    TMP DP  RH WIND       PRES   REMARKS
HAVRE          CLEAR     55  42  61 W15G24    30.02R
LEWISTOWN      PTCLDY    49  40  71 W10       30.13R
GREAT FALLS    CLEAR     49  41  74 SW12      30.11R
CUT BANK       PTCLDY    49  39  68 NW10      30.10R
HELENA         PTCLDY    57  42  57 CALM      30.17R
BUTTE          CLEAR     41  37  86 CALM      30.27R
BOZEMAN        PTCLDY    47  41  80 S9        30.22R

WESTERN MONTANA


CITY           SKY/WX    TMP DP  RH WIND       PRES   REMARKS
MISSOULA       MOCLDY    48  42  80 CALM      30.21R
KALISPELL      NOT AVBL

NORTH DAKOTA


CITY           SKY/WX    TMP DP  RH WIND       PRES   REMARKS
WILLISTON      CLOUDY    53  50  89 SW7       29.85S
DICKINSON      CLEAR     50  45  83 W7        29.89S
MINOT          CLEAR     54  49  83 SW14      29.80S
BISMARCK       MOCLDY    54  51  90 SW3       29.87R

SOUTHERN SASKATCHEWAN


CITY           SKY/WX    TMP DP  RH WIND       PRES   REMARKS
REGINA         LGT RAIN  54  52  94 W10       29.86S
ESTEVAN        CLEAR     52  50  93 SW6       29.81S
SWIFT CURRENT  CLOUDY    50  48  93 W6        29.95R




USA.gov is the U.S. government's official web portal to all federal, state and local government web resources and services.